,,Stat6,,Stat2,,Stat8,,Stat9,,Stat10,,Wind1,,Wind1,
time,status,PA1M_AVG,status,PR1M_SUM,status,RH1M_AVG,status,SR1M_AVG,status,TA1M_AVG,status,W1dAve1m,status,W1sAve1m,
2008-05-01, 00:00:00,VALID,917.704,VALID,0,VALID,100,VALID,0,VALID,21.3628,VALID,11,VALID,0,
2008-05-01, 00:01:00,VALID,917.715,VALID,0,VALID,100,VALID,-0.0339617,VALID,21.3755,VALID,11,VALID,0,
2008-05-01, 00:02:00,VALID,917.705,VALID,0,VALID,100,VALID,-0.0169808,VALID,21.3431,VALID,11,VALID,0,
2008-05-01, 00:03:00,VALID,917.7,VALID,0,VALID,100,VALID,0,VALID,21.3301,VALID,11,VALID,0,
2008-05-01, 00:04:00,VALID,917.742,VALID,0,VALID,100,VALID,0,VALID,21.3041,VALID,11,VALID,0,
2008-05-01, 00:05:00,VALID,917.751,VALID,0,VALID,100,VALID,-0.0169808,VALID,21.3141,VALID,11,VALID,0,
2008-05-01, 00:06:00,VALID,917.774,VALID,0,VALID,100,VALID,-0.0339617,VALID,21.3366,VALID,11,VALID,0,
2008-05-01, 00:07:00,VALID,917.79,VALID,0,VALID,100,VALID,0,VALID,21.3431,VALID,11,VALID,0,
2008-05-01, 00:08:00,VALID,917.788,VALID,0,VALID,100,VALID,0,VALID,21.3588,VALID,11,VALID,0,
2008-05-01, 00:09:00,VALID,917.79,VALID,0,VALID,100,VALID,0,VALID,21.3688,VALID,8,VALID,0,
2008-05-01, 00:10:00,VALID,917.793,VALID,0,VALID,100,VALID,0,VALID,21.3333,VALID,351,VALID,0,
2008-05-01, 00:11:00,VALID,917.777,VALID,0,VALID,100,VALID,-0.0169808,VALID,21.2941,VALID,337,VALID,0,
2008-05-01, 00:12:00,VALID,917.753,VALID,0,VALID,100,VALID,0,VALID,21.2846,VALID,336,VALID,0,
2008-05-01, 00:13:00,VALID,917.735,VALID,0,VALID,100,VALID,-0.0339617,VALID,21.2717,VALID,336,VALID,0,
2008-05-01, 00:14:00,VALID,917.701,VALID,0,VALID,100,VALID,-0.0339617,VALID,21.2587,VALID,336,VALID,0,
2008-05-01, 00:15:00,VALID,917.669,VALID,0,VALID,100,VALID,-0.0169808,VALID,21.2522,VALID,336,VALID,0,
2008-05-01, 00:16:00,VALID,917.645,VALID,0,VALID,100,VALID,-0.0339617,VALID,21.2495,VALID,336,VALID,0,
2008-05-01, 00:17:00,VALID,917.632,VALID,0,VALID,100,VALID,0,VALID,21.2489,VALID,336,VALID,0,
2008-05-01, 00:18:00,VALID,917.624,VALID,0,VALID,100,VALID,-0.0169808,VALID,21.266,VALID,336,VALID,0,
2008-05-01, 00:19:00,VALID,917.621,VALID,0,VALID,100,VALID,-0.0339617,VALID,21.2622,VALID,336,VALID,0,
2008-05-01, 00:20:00,VALID,917.605,VALID,0,VALID,100,VALID,-0.0339617,VALID,21.2654,VALID,336,VALID,0,
2008-05-01, 00:21:00,VALID,917.589,VALID,0,VALID,100,VALID,-0.0509425,VALID,21.2787,VALID,336,VALID,0,
2008-05-01, 00:22:00,VALID,917.567,VALID,0,VALID,100,VALID,0,VALID,21.2752,VALID,345,VALID,0.0546875,
2008-05-01, 00:23:00,VALID,917.544,VALID,0,VALID,100,VALID,0,VALID,21.2811,VALID,25,VALID,0.749169,
2008-05-01, 00:24:00,VALID,917.54,VALID,0,VALID,100,VALID,0.0169808,VALID,21.2744,VALID,32,VALID,0.402344,
2008-05-01, 00:25:00,VALID,917.511,VALID,0,VALID,100,VALID,0.0339617,VALID,21.2971,VALID,24,VALID,0,
2008-05-01, 00:26:00,VALID,917.503,VALID,0,VALID,100,VALID,0.0509425,VALID,21.3101,VALID,29,VALID,0.736806,
2008-05-01, 00:27:00,VALID,917.479,VALID,0,VALID,100,VALID,0.0169808,VALID,21.3101,VALID,28,VALID,0.752131,
2008-05-01, 00:28:00,VALID,917.466,VALID,0,VALID,100,VALID,0.0169808,VALID,21.3103,VALID,23,VALID,0.481136,
2008-05-01, 00:29:00,VALID,917.452,VALID,0,VALID,100,VALID,0.0849042,VALID,21.3033,VALID,23,VALID,0,
2008-05-01, 00:30:00,VALID,917.444,VALID,0,VALID,100,VALID,0,VALID,21.2966,VALID,23,VALID,0.00109012,
2008-05-01, 00:31:00,VALID,917.414,VALID,0,VALID,100,VALID,0.0339617,VALID,21.3006,VALID,23,VALID,0,
2008-05-01, 00:32:00,VALID,917.415,VALID,0,VALID,100,VALID,0.0339617,VALID,21.2966,VALID,23,VALID,0,
2008-05-01, 00:33:00,VALID,917.408,VALID,0,VALID,100,VALID,0.0509425,VALID,21.2901,VALID,23,VALID,0,
2008-05-01, 00:34:00,VALID,917.384,VALID,0,VALID,100,VALID,0.0849042,VALID,21.2898,VALID,23,VALID,0,
2008-05-01, 00:35:00,VALID,917.365,VALID,0,VALID,100,VALID,0.0679233,VALID,21.3041,VALID,23,VALID,0,
2008-05-01, 00:36:00,VALID,917.37,VALID,0,VALID,100,VALID,0.0849042,VALID,21.2938,VALID,23,VALID,0,
2008-05-01, 00:37:00,VALID,917.348,VALID,0,VALID,100,VALID,0,VALID,21.2703,VALID,23,VALID,0,
2008-05-01, 00:38:00,VALID,917.344,VALID,0,VALID,100,VALID,0.0509425,VALID,21.2571,VALID,23,VALID,0,
2008-05-01, 00:39:00,VALID,917.318,VALID,0,VALID,100,VALID,0.0339617,VALID,21.2644,VALID,23,VALID,0,
2008-05-01, 00:40:00,VALID,917.31,VALID,0,VALID,100,VALID,0.0339617,VALID,21.2611,VALID,23,VALID,0,
2008-05-01, 00:41:00,VALID,917.297,VALID,0,VALID,100,VALID,0,VALID,21.2571,VALID,23,VALID,0,
2008-05-01, 00:42:00,VALID,917.287,VALID,0,VALID,100,VALID,0.0509425,VALID,21.2603,VALID,23,VALID,0,
2008-05-01, 00:43:00,VALID,917.278,VALID,0,VALID,100,VALID,0.0679233,VALID,21.2284,VALID,33,VALID,0,
2008-05-01, 00:44:00,VALID,917.264,VALID,0,VALID,100,VALID,0.0849042,VALID,21.1827,VALID,47,VALID,0,
2008-05-01, 00:45:00,VALID,917.257,VALID,0,VALID,100,VALID,0.0509425,VALID,21.144,VALID,48,VALID,0,
2008-05-01, 00:46:00,VALID,917.233,VALID,0,VALID,100,VALID,0.0679233,VALID,21.0883,VALID,58,VALID,0,
2008-05-01, 00:47:00,VALID,917.23,VALID,0,VALID,100,VALID,0.0169808,VALID,21.0761,VALID,62,VALID,0.273819,
2008-05-01, 00:48:00,VALID,917.225,VALID,0,VALID,100,VALID,0.0509425,VALID,21.0658,VALID,75,VALID,0.167081,
2008-05-01, 00:49:00,VALID,917.219,VALID,0,VALID,100,VALID,0.0509425,VALID,21.0561,VALID,85,VALID,0,
2008-05-01, 00:50:00,VALID,917.221,VALID,0,VALID,100,VALID,0.0509425,VALID,21.0531,VALID,94,VALID,0,
2008-05-01, 00:51:00,VALID,917.216,VALID,0,VALID,100,VALID,0.0679233,VALID,21.0566,VALID,95,VALID,0,
2008-05-01, 00:52:00,VALID,917.2,VALID,0,VALID,100,VALID,-0.0169808,VALID,21.0544,VALID,67,VALID,0,
2008-05-01, 00:53:00,VALID,917.195,VALID,0,VALID,100,VALID,-0.0509425,VALID,21.0612,VALID,26,VALID,0.310724,
2008-05-01, 00:54:00,VALID,917.171,VALID,0,VALID,100,VALID,-0.0339617,VALID,21.055,VALID,53,VALID,0.131359,
2008-05-01, 00:55:00,VALID,917.141,VALID,0,VALID,100,VALID,-0.0169808,VALID,21.0615,VALID,58,VALID,0,
2008-05-01, 00:56:00,VALID,917.129,VALID,0,VALID,100,VALID,-0.0339617,VALID,21.0512,VALID,58,VALID,0,
2008-05-01, 00:57:00,VALID,917.124,VALID,0,VALID,100,VALID,-0.0679233,VALID,21.0907,VALID,55,VALID,0,
2008-05-01, 00:58:00,VALID,917.106,VALID,0,VALID,100,VALID,-0.0169808,VALID,21.0904,VALID,22,VALID,0,
2008-05-01, 00:59:00,VALID,917.092,VALID,0,VALID,100,VALID,0,VALID,21.0742,VALID,16,VALID,0,
2008-05-01, 01:00:00,VALID,917.088,VALID,0,VALID,100,VALID,-0.0339617,VALID,21.0677,VALID,15,VALID,0,
2008-05-01, 01:01:00,VALID,917.077,VALID,0,VALID,100,VALID,-0.0169808,VALID,21.0642,VALID,15,VALID,0,
2008-05-01, 01:02:00,VALID,917.051,VALID,0,VALID,100,VALID,-0.0509425,VALID,21.0772,VALID,15,VALID,0,
2008-05-01, 01:03:00,VALID,917.051,VALID,0,VALID,100,VALID,-0.0849042,VALID,21.0874,VALID,15,VALID,0,
2008-05-01, 01:04:00,VALID,917.062,VALID,0,VALID,100,VALID,-0.0339617,VALID,21.1137,VALID,15,VALID,0,
2008-05-01, 01:05:00,VALID,917.057,VALID,0,VALID,100,VALID,-0.101885,VALID,21.1001,VALID,15,VALID,0,
2008-05-01, 01:06:00,VALID,917.063,VALID,0,VALID,100,VALID,-0.0339617,VALID,21.1007,VALID,15,VALID,0,
2008-05-01, 01:07:00,VALID,917.06,VALID,0,VALID,100,VALID,-0.0339617,VALID,21.0663,VALID,15,VALID,0,
2008-05-01, 01:08:00,VALID,917.062,VALID,0,VALID,100,VALID,0.0169808,VALID,21.0696,VALID,15,VALID,0,
2008-05-01, 01:09:00,VALID,917.059,VALID,0,VALID,100,VALID,0.0339617,VALID,21.0658,VALID,15,VALID,0,
2008-05-01, 01:10:00,VALID,917.031,VALID,0,VALID,100,VALID,0.0339617,VALID,21.0788,VALID,15,VALID,0,
2008-05-01, 01:11:00,VALID,917.029,VALID,0,VALID,100,VALID,0.0169808,VALID,21.098,VALID,15,VALID,0,
2008-05-01, 01:12:00,VALID,917.024,VALID,0,VALID,100,VALID,0.0169808,VALID,21.0856,VALID,15,VALID,0,
2008-05-01, 01:13:00,VALID,917.038,VALID,0,VALID,100,VALID,0.0169808,VALID,21.0628,VALID,15,VALID,0,
2008-05-01, 01:14:00,VALID,917.051,VALID,0,VALID,100,VALID,0.0169808,VALID,21.0431,VALID,15,VALID,0,
2008-05-01, 01:15:00,VALID,917.072,VALID,0,VALID,100,VALID,0.0169808,VALID,21.0723,VALID,15,VALID,0,
2008-05-01, 01:16:00,VALID,917.06,VALID,0,VALID,100,VALID,0.0169808,VALID,21.0691,VALID,15,VALID,0,
2008-05-01, 01:17:00,VALID,917.052,VALID,0,VALID,100,VALID,0.0169808,VALID,21.0948,VALID,15,VALID,0,
2008-05-01, 01:18:00,VALID,917.045,VALID,0,VALID,100,VALID,0,VALID,21.1015,VALID,15,VALID,0,
2008-05-01, 01:19:00,VALID,917.035,VALID,0,VALID,100,VALID,0.0169808,VALID,21.1375,VALID,15,VALID,0,
2008-05-01, 01:20:00,VALID,917.025,VALID,0,VALID,100,VALID,0.0169808,VALID,21.137,VALID,15,VALID,0,
2008-05-01, 01:21:00,VALID,917.003,VALID,0,VALID,100,VALID,0.0339617,VALID,21.134,VALID,15,VALID,0,
2008-05-01, 01:22:00,VALID,916.983,VALID,0,VALID,100,VALID,0,VALID,21.1186,VALID,15,VALID,0,
2008-05-01, 01:23:00,VALID,916.959,VALID,0,VALID,100,VALID,0,VALID,21.0758,VALID,15,VALID,0.645167,
2008-05-01, 01:24:00,VALID,916.932,VALID,0,VALID,100,VALID,0,VALID,21.0596,VALID,12,VALID,0.280878,
2008-05-01, 01:25:00,VALID,916.906,VALID,0,VALID,100,VALID,0,VALID,21.0601,VALID,19,VALID,0.353795,
2008-05-01, 01:26:00,VALID,916.897,VALID,0,VALID,100,VALID,0,VALID,21.0531,VALID,16,VALID,0.406064,
2008-05-01, 01:27:00,VALID,916.876,VALID,0,VALID,100,VALID,0,VALID,21.0536,VALID,5,VALID,0.236919,
2008-05-01, 01:28:00,VALID,916.869,VALID,0,VALID,100,VALID,0,VALID,21.0339,VALID,350,VALID,0.00746528,
2008-05-01, 01:29:00,VALID,916.867,VALID,0,VALID,100,VALID,0,VALID,21.0141,VALID,350,VALID,0,
2008-05-01, 01:30:00,VALID,916.875,VALID,0,VALID,100,VALID,0,VALID,21.0309,VALID,350,VALID,0,
2008-05-01, 01:31:00,VALID,916.853,VALID,0,VALID,100,VALID,0.0169808,VALID,21.0271,VALID,350,VALID,0,
2008-05-01, 01:32:00,VALID,916.836,VALID,0,VALID,100,VALID,0,VALID,21.0304,VALID,350,VALID,0,
2008-05-01, 01:33:00,VALID,916.791,VALID,0,VALID,100,VALID,0,VALID,21.0279,VALID,350,VALID,0,
2008-05-01, 01:34:00,VALID,916.772,VALID,0,VALID,100,VALID,0,VALID,21.0144,VALID,350,VALID,0,
2008-05-01, 01:35:00,VALID,916.747,VALID,0,VALID,100,VALID,0.0169808,VALID,21.0239,VALID,350,VALID,0,
2008-05-01, 01:36:00,VALID,916.744,VALID,0,VALID,100,VALID,0,VALID,21.0342,VALID,350,VALID,0,
2008-05-01, 01:37:00,VALID,916.723,VALID,0,VALID,100,VALID,-0.0339617,VALID,21.0379,VALID,350,VALID,0,
2008-05-01, 01:38:00,VALID,916.691,VALID,0,VALID,100,VALID,-0.0169808,VALID,21.0212,VALID,350,VALID,0,
2008-05-01, 01:39:00,VALID,916.656,VALID,0,VALID,100,VALID,0,VALID,21.0112,VALID,350,VALID,0,
2008-05-01, 01:40:00,VALID,916.627,VALID,0,VALID,100,VALID,0,VALID,21.0047,VALID,343,VALID,0,
2008-05-01, 01:41:00,VALID,916.597,VALID,0,VALID,100,VALID,-0.0169808,VALID,21.0012,VALID,207,VALID,0,
2008-05-01, 01:42:00,VALID,916.581,VALID,0,VALID,100,VALID,0,VALID,20.992,VALID,190,VALID,0,
2008-05-01, 01:43:00,VALID,916.581,VALID,0,VALID,100,VALID,-0.0509425,VALID,20.986,VALID,190,VALID,0,
2008-05-01, 01:44:00,VALID,916.574,VALID,0,VALID,100,VALID,0,VALID,20.9757,VALID,190,VALID,0,
2008-05-01, 01:45:00,VALID,916.575,VALID,0,VALID,100,VALID,0,VALID,20.9622,VALID,190,VALID,0,
2008-05-01, 01:46:00,VALID,916.566,VALID,0,VALID,100,VALID,0,VALID,20.9557,VALID,190,VALID,0,
2008-05-01, 01:47:00,VALID,916.548,VALID,0,VALID,100,VALID,0,VALID,20.9527,VALID,190,VALID,0,
2008-05-01, 01:48:00,VALID,916.551,VALID,0,VALID,100,VALID,0,VALID,20.9527,VALID,190,VALID,0,
2008-05-01, 01:49:00,VALID,916.557,VALID,0,VALID,100,VALID,-0.0339617,VALID,20.9433,VALID,190,VALID,0,
2008-05-01, 01:50:00,VALID,916.546,VALID,0,VALID,100,VALID,-0.0169808,VALID,20.9262,VALID,190,VALID,0,
2008-05-01, 01:51:00,VALID,916.546,VALID,0,VALID,100,VALID,0,VALID,20.933,VALID,190,VALID,0,
2008-05-01, 01:52:00,VALID,916.531,VALID,0,VALID,100,VALID,-0.0509425,VALID,20.9338,VALID,190,VALID,0,
2008-05-01, 01:53:00,VALID,916.529,VALID,0,VALID,100,VALID,-0.101885,VALID,20.9349,VALID,190,VALID,0,
2008-05-01, 01:54:00,VALID,916.517,VALID,0,VALID,100,VALID,-0.0679233,VALID,20.9216,VALID,190,VALID,0,
2008-05-01, 01:55:00,VALID,916.504,VALID,0,VALID,100,VALID,-0.101885,VALID,20.9446,VALID,190,VALID,0,
2008-05-01, 01:56:00,VALID,916.49,VALID,0,VALID,100,VALID,-0.101885,VALID,20.9186,VALID,190,VALID,0,
2008-05-01, 01:57:00,VALID,916.474,VALID,0,VALID,100,VALID,-0.118866,VALID,20.9027,VALID,190,VALID,0,
2008-05-01, 01:58:00,VALID,916.433,VALID,0,VALID,100,VALID,-0.101885,VALID,20.9189,VALID,190,VALID,0,
2008-05-01, 01:59:00,VALID,916.403,VALID,0,VALID,100,VALID,-0.0849042,VALID,20.9119,VALID,190,VALID,0,
2008-05-01, 02:00:00,VALID,916.373,VALID,0,VALID,100,VALID,-0.101885,VALID,20.9054,VALID,190,VALID,0,
2008-05-01, 02:01:00,VALID,916.342,VALID,0,VALID,100,VALID,-0.101885,VALID,20.9119,VALID,190,VALID,0,
2008-05-01, 02:02:00,VALID,916.306,VALID,0,VALID,100,VALID,-0.0849042,VALID,20.9086,VALID,190,VALID,0,
2008-05-01, 02:03:00,VALID,916.286,VALID,0,VALID,100,VALID,-0.101885,VALID,20.8994,VALID,190,VALID,0,
2008-05-01, 02:04:00,VALID,916.274,VALID,0,VALID,100,VALID,-0.101885,VALID,20.8762,VALID,190,VALID,0,
2008-05-01, 02:05:00,VALID,916.249,VALID,0,VALID,100,VALID,-0.101885,VALID,20.8862,VALID,190,VALID,0,
2008-05-01, 02:06:00,VALID,916.242,VALID,0,VALID,100,VALID,-0.118866,VALID,20.8632,VALID,146,VALID,0,
2008-05-01, 02:07:00,VALID,916.237,VALID,0,VALID,100,VALID,-0.0509425,VALID,20.8691,VALID,43,VALID,0,
2008-05-01, 02:08:00,VALID,916.24,VALID,0,VALID,100,VALID,-0.0169808,VALID,20.8754,VALID,43,VALID,0,
2008-05-01, 02:09:00,VALID,916.231,VALID,0,VALID,100,VALID,0,VALID,20.8616,VALID,43,VALID,0,
2008-05-01, 02:10:00,VALID,916.225,VALID,0,VALID,100,VALID,-0.0169808,VALID,20.8659,VALID,43,VALID,0,
2008-05-01, 02:11:00,VALID,916.221,VALID,0,VALID,100,VALID,0,VALID,20.8656,VALID,42,VALID,0,
2008-05-01, 02:12:00,VALID,916.189,VALID,0,VALID,100,VALID,0,VALID,20.8851,VALID,34,VALID,0,
2008-05-01, 02:13:00,VALID,916.157,VALID,0,VALID,100,VALID,0,VALID,20.8981,VALID,29,VALID,0,
2008-05-01, 02:14:00,VALID,916.15,VALID,0,VALID,100,VALID,0,VALID,20.8978,VALID,29,VALID,0,
2008-05-01, 02:15:00,VALID,916.134,VALID,0,VALID,100,VALID,0,VALID,20.8916,VALID,26,VALID,0,
2008-05-01, 02:16:00,VALID,916.123,VALID,0,VALID,100,VALID,-0.0169808,VALID,20.8656,VALID,14,VALID,0,
2008-05-01, 02:17:00,VALID,916.105,VALID,0,VALID,100,VALID,0,VALID,20.8426,VALID,17,VALID,0,
2008-05-01, 02:18:00,VALID,916.082,VALID,0,VALID,100,VALID,-0.0509425,VALID,20.8526,VALID,21,VALID,0,
2008-05-01, 02:19:00,VALID,916.048,VALID,0,VALID,100,VALID,0,VALID,20.8526,VALID,22,VALID,0,
2008-05-01, 02:20:00,VALID,916.039,VALID,0,VALID,100,VALID,-0.0169808,VALID,20.8691,VALID,20,VALID,0,
2008-05-01, 02:21:00,VALID,916.017,VALID,0,VALID,100,VALID,-0.0169808,VALID,20.8656,VALID,19,VALID,0,
2008-05-01, 02:22:00,VALID,916.036,VALID,0,VALID,100,VALID,0,VALID,20.8589,VALID,19,VALID,0,
2008-05-01, 02:23:00,VALID,916.046,VALID,0,VALID,100,VALID,0,VALID,20.8659,VALID,19,VALID,0,
2008-05-01, 02:24:00,VALID,916.038,VALID,0,VALID,100,VALID,-0.0169808,VALID,20.8286,VALID,22,VALID,0.393111,
2008-05-01, 02:25:00,VALID,916.034,VALID,0,VALID,100,VALID,-0.0169808,VALID,20.8554,VALID,19,VALID,0.963605,
2008-05-01, 02:26:00,VALID,916.024,VALID,0,VALID,100,VALID,0.0169808,VALID,20.8386,VALID,13,VALID,0.876402,
2008-05-01, 02:27:00,VALID,916.021,VALID,0,VALID,100,VALID,0,VALID,20.8232,VALID,17,VALID,0.986737,
2008-05-01, 02:28:00,VALID,916.014,VALID,0,VALID,100,VALID,0,VALID,20.8075,VALID,19,VALID,0.987827,
2008-05-01, 02:29:00,VALID,916.028,VALID,0,VALID,100,VALID,0,VALID,20.8075,VALID,20,VALID,0.903343,
2008-05-01, 02:30:00,VALID,916.042,VALID,0,VALID,100,VALID,-0.0169808,VALID,20.8199,VALID,27,VALID,0.884629,
2008-05-01, 02:31:00,VALID,916.052,VALID,0,VALID,100,VALID,0,VALID,20.8226,VALID,23,VALID,0.967221,
2008-05-01, 02:32:00,VALID,916.078,VALID,0,VALID,100,VALID,0,VALID,20.8167,VALID,11,VALID,1.12444,
2008-05-01, 02:33:00,VALID,916.102,VALID,0,VALID,100,VALID,0.0169808,VALID,20.7737,VALID,10,VALID,0.161044,
2008-05-01, 02:34:00,VALID,916.113,VALID,0,VALID,100,VALID,0,VALID,20.7577,VALID,15,VALID,0,
2008-05-01, 02:35:00,VALID,916.114,VALID,0,VALID,100,VALID,0,VALID,20.7442,VALID,22,VALID,0,
2008-05-01, 02:36:00,VALID,916.135,VALID,0,VALID,100,VALID,-0.0169808,VALID,20.7285,VALID,9,VALID,0.293786,
2008-05-01, 02:37:00,VALID,916.152,VALID,0,VALID,100,VALID,-0.0169808,VALID,20.6639,VALID,36,VALID,0.692708,
2008-05-01, 02:38:00,VALID,916.165,VALID,0,VALID,100,VALID,-0.0169808,VALID,20.5952,VALID,15,VALID,1.07885,
2008-05-01, 02:39:00,VALID,916.188,VALID,0,VALID,100,VALID,0,VALID,20.5438,VALID,20,VALID,0.750533,
2008-05-01, 02:40:00,VALID,916.2,VALID,0,VALID,100,VALID,0,VALID,20.5243,VALID,24,VALID,1.12138,
2008-05-01, 02:41:00,VALID,916.21,VALID,0,VALID,100,VALID,0,VALID,20.4499,VALID,26,VALID,1.12082,
2008-05-01, 02:42:00,VALID,916.203,VALID,0,VALID,100,VALID,-0.0339617,VALID,20.414,VALID,25,VALID,1.05208,
2008-05-01, 02:43:00,VALID,916.203,VALID,0,VALID,100,VALID,-0.0169808,VALID,20.4042,VALID,18,VALID,1.2642,
2008-05-01, 02:44:00,VALID,916.195,VALID,0,VALID,100,VALID,0,VALID,20.4042,VALID,24,VALID,0.929324,
2008-05-01, 02:45:00,VALID,916.194,VALID,0,VALID,100,VALID,0,VALID,20.3977,VALID,28,VALID,1.09435,
2008-05-01, 02:46:00,VALID,916.194,VALID,0,VALID,100,VALID,-0.0169808,VALID,20.3945,VALID,24,VALID,0.942827,
2008-05-01, 02:47:00,VALID,916.204,VALID,0,VALID,100,VALID,-0.0339617,VALID,20.3947,VALID,20,VALID,0.812682,
2008-05-01, 02:48:00,VALID,916.226,VALID,0,VALID,100,VALID,0,VALID,20.4145,VALID,14,VALID,0.675509,
2008-05-01, 02:49:00,VALID,916.235,VALID,0,VALID,100,VALID,-0.0169808,VALID,20.4115,VALID,16,VALID,0.122337,
2008-05-01, 02:50:00,VALID,916.24,VALID,0,VALID,100,VALID,-0.0339617,VALID,20.4042,VALID,25,VALID,0.00390625,
2008-05-01, 02:51:00,VALID,916.252,VALID,0,VALID,100,VALID,-0.0169808,VALID,20.4267,VALID,20,VALID,0.00234375,
2008-05-01, 02:52:00,VALID,916.267,VALID,0,VALID,100,VALID,0.0339617,VALID,20.4499,VALID,24,VALID,0.0881177,
2008-05-01, 02:53:00,VALID,916.249,VALID,0,VALID,100,VALID,-0.0169808,VALID,20.4564,VALID,21,VALID,0,
2008-05-01, 02:54:00,VALID,916.249,VALID,0,VALID,100,VALID,0.0169808,VALID,20.4924,VALID,15,VALID,0.406436,
2008-05-01, 02:55:00,VALID,916.241,VALID,0,VALID,100,VALID,0,VALID,20.5046,VALID,17,VALID,0.896439,
2008-05-01, 02:56:00,VALID,916.222,VALID,0,VALID,100,VALID,-0.0169808,VALID,20.544,VALID,13,VALID,0.210938,
2008-05-01, 02:57:00,VALID,916.206,VALID,0,VALID,100,VALID,0,VALID,20.5468,VALID,23,VALID,0,
2008-05-01, 02:58:00,VALID,916.2,VALID,0,VALID,100,VALID,0,VALID,20.5668,VALID,20,VALID,0,
2008-05-01, 02:59:00,VALID,916.19,VALID,0,VALID,100,VALID,0,VALID,20.566,VALID,20,VALID,0,
2008-05-01, 03:00:00,VALID,916.191,VALID,0,VALID,100,VALID,0.0169808,VALID,20.5822,VALID,20,VALID,0,
2008-05-01, 03:01:00,VALID,916.191,VALID,0,VALID,100,VALID,0,VALID,20.5922,VALID,20,VALID,0,
2008-05-01, 03:02:00,VALID,916.192,VALID,0,VALID,100,VALID,-0.0169808,VALID,20.6084,VALID,20,VALID,0,
2008-05-01, 03:03:00,VALID,916.198,VALID,0,VALID,100,VALID,0.0169808,VALID,20.5954,VALID,20,VALID,0,
2008-05-01, 03:04:00,VALID,916.215,VALID,0,VALID,100,VALID,0.0169808,VALID,20.6014,VALID,20,VALID,0,
2008-05-01, 03:05:00,VALID,916.219,VALID,0,VALID,100,VALID,0.0169808,VALID,20.6112,VALID,20,VALID,0,
2008-05-01, 03:06:00,VALID,916.237,VALID,0,VALID,100,VALID,0.0169808,VALID,20.5852,VALID,20,VALID,0,
2008-05-01, 03:07:00,VALID,916.216,VALID,0,VALID,100,VALID,0,VALID,20.6054,VALID,20,VALID,0,
2008-05-01, 03:08:00,VALID,916.206,VALID,0,VALID,100,VALID,-0.0339617,VALID,20.6197,VALID,20,VALID,0,
2008-05-01, 03:09:00,VALID,916.207,VALID,0,VALID,100,VALID,-0.0679233,VALID,20.6357,VALID,20,VALID,0,
2008-05-01, 03:10:00,VALID,916.202,VALID,0,VALID,100,VALID,-0.0679233,VALID,20.6389,VALID,20,VALID,0,
2008-05-01, 03:11:00,VALID,916.196,VALID,0,VALID,100,VALID,-0.101885,VALID,20.6292,VALID,20,VALID,0,
2008-05-01, 03:12:00,VALID,916.176,VALID,0,VALID,100,VALID,-0.0339617,VALID,20.6452,VALID,20,VALID,0,
2008-05-01, 03:13:00,VALID,916.168,VALID,0,VALID,100,VALID,-0.0509425,VALID,20.6617,VALID,20,VALID,0,
2008-05-01, 03:14:00,VALID,916.155,VALID,0,VALID,100,VALID,-0.0169808,VALID,20.6417,VALID,20,VALID,0,
2008-05-01, 03:15:00,VALID,916.16,VALID,0,VALID,100,VALID,-0.0339617,VALID,20.6387,VALID,20,VALID,0,
2008-05-01, 03:16:00,VALID,916.167,VALID,0,VALID,100,VALID,-0.0339617,VALID,20.6614,VALID,20,VALID,0,
2008-05-01, 03:17:00,VALID,916.169,VALID,0,VALID,100,VALID,-0.0339617,VALID,20.6811,VALID,20,VALID,0,
2008-05-01, 03:18:00,VALID,916.163,VALID,0,VALID,100,VALID,0,VALID,20.6874,VALID,20,VALID,0,
2008-05-01, 03:19:00,VALID,916.156,VALID,0,VALID,100,VALID,-0.0509425,VALID,20.6711,VALID,20,VALID,0,
2008-05-01, 03:20:00,VALID,916.144,VALID,0,VALID,100,VALID,-0.0339617,VALID,20.6682,VALID,20,VALID,0,
2008-05-01, 03:21:00,VALID,916.128,VALID,0,VALID,100,VALID,-0.0849042,VALID,20.6779,VALID,20,VALID,0,
2008-05-01, 03:22:00,VALID,916.111,VALID,0,VALID,100,VALID,0,VALID,20.6868,VALID,28,VALID,0,
2008-05-01, 03:23:00,VALID,916.109,VALID,0,VALID,100,VALID,0.0679233,VALID,20.6828,VALID,32,VALID,0,
2008-05-01, 03:24:00,VALID,916.122,VALID,0,VALID,100,VALID,0.0509425,VALID,20.6601,VALID,32,VALID,0,
2008-05-01, 03:25:00,VALID,916.12,VALID,0,VALID,100,VALID,-0.0169808,VALID,20.6436,VALID,32,VALID,0,
2008-05-01, 03:26:00,VALID,916.109,VALID,0,VALID,100,VALID,0.0509425,VALID,20.6341,VALID,32,VALID,0,
2008-05-01, 03:27:00,VALID,916.104,VALID,0,VALID,100,VALID,0.0509425,VALID,20.6274,VALID,32,VALID,0,
2008-05-01, 03:28:00,VALID,916.099,VALID,0,VALID,100,VALID,0.0679233,VALID,20.6114,VALID,32,VALID,0,
2008-05-01, 03:29:00,VALID,916.09,VALID,0,VALID,100,VALID,0.0339617,VALID,20.5984,VALID,32,VALID,0,
2008-05-01, 03:30:00,VALID,916.093,VALID,0,VALID,100,VALID,0.0849042,VALID,20.5852,VALID,32,VALID,0,
2008-05-01, 03:31:00,VALID,916.085,VALID,0,VALID,100,VALID,0.0509425,VALID,20.5855,VALID,32,VALID,0,
2008-05-01, 03:32:00,VALID,916.078,VALID,0,VALID,100,VALID,0.0509425,VALID,20.5987,VALID,32,VALID,0,
2008-05-01, 03:33:00,VALID,916.083,VALID,0,VALID,100,VALID,0.0509425,VALID,20.5884,VALID,32,VALID,0,
2008-05-01, 03:34:00,VALID,916.074,VALID,0,VALID,100,VALID,0.0169808,VALID,20.5755,VALID,32,VALID,0,
2008-05-01, 03:35:00,VALID,916.075,VALID,0,VALID,100,VALID,0.0339617,VALID,20.5692,VALID,32,VALID,0,
2008-05-01, 03:36:00,VALID,916.082,VALID,0,VALID,100,VALID,0.0169808,VALID,20.5592,VALID,32,VALID,0,
2008-05-01, 03:37:00,VALID,916.07,VALID,0,VALID,100,VALID,0,VALID,20.5473,VALID,35,VALID,0,
2008-05-01, 03:38:00,VALID,916.053,VALID,0,VALID,100,VALID,-0.0849042,VALID,20.5024,VALID,77,VALID,0.131424,
2008-05-01, 03:39:00,VALID,916.039,VALID,0,VALID,100,VALID,-0.101885,VALID,20.4869,VALID,111,VALID,0,
2008-05-01, 03:40:00,VALID,916.042,VALID,0,VALID,100,VALID,-0.0679233,VALID,20.4602,VALID,121,VALID,0,
2008-05-01, 03:41:00,VALID,916.045,VALID,0,VALID,100,VALID,-0.0339617,VALID,20.4569,VALID,122,VALID,0,
2008-05-01, 03:42:00,VALID,916.024,VALID,0,VALID,100,VALID,-0.0509425,VALID,20.4569,VALID,133,VALID,0,
2008-05-01, 03:43:00,VALID,915.999,VALID,0,VALID,100,VALID,-0.0509425,VALID,20.4537,VALID,144,VALID,0.414063,
2008-05-01, 03:44:00,VALID,915.998,VALID,0,VALID,100,VALID,-0.0339617,VALID,20.4604,VALID,143,VALID,0.0138081,
2008-05-01, 03:45:00,VALID,915.995,VALID,0,VALID,100,VALID,0,VALID,20.4504,VALID,144,VALID,0,
2008-05-01, 03:46:00,VALID,915.984,VALID,0,VALID,100,VALID,-0.0169808,VALID,20.4342,VALID,144,VALID,0,
2008-05-01, 03:47:00,VALID,915.983,VALID,0,VALID,100,VALID,-0.0509425,VALID,20.431,VALID,144,VALID,0,
2008-05-01, 03:48:00,VALID,915.97,VALID,0,VALID,100,VALID,-0.0679233,VALID,20.4347,VALID,144,VALID,0,
2008-05-01, 03:49:00,VALID,915.96,VALID,0,VALID,100,VALID,0,VALID,20.431,VALID,144,VALID,0,
2008-05-01, 03:50:00,VALID,915.961,VALID,0,VALID,100,VALID,-0.0169808,VALID,20.421,VALID,144,VALID,0,
2008-05-01, 03:51:00,VALID,915.971,VALID,0,VALID,100,VALID,-0.0169808,VALID,20.4245,VALID,144,VALID,0,
2008-05-01, 03:52:00,VALID,915.966,VALID,0,VALID,100,VALID,-0.0509425,VALID,20.4112,VALID,144,VALID,0,
2008-05-01, 03:53:00,VALID,915.95,VALID,0,VALID,100,VALID,-0.0509425,VALID,20.3985,VALID,144,VALID,0,